1491595200.2,47145,10.38,72892.5,-7.25,-7.91,-7.83,0,*50
1491595201.42,47146,10.38,72888.8,-7.25,-7.95,-7.83,0,*57
1491595202.63,47147,10.44,72890.8,-7.25,-7.83,-7.83,0,*51
1491595203.87,47148,10.38,72888.8,-7.25,-7.91,-7.91,0,*5E
1491595205.12,47149,10.38,72894.8,-7.25,-7.95,-7.91,0,*5B
1491595206.36,47150,10.38,72894.5,-7.25,-7.95,-7.95,0,*57
1491595207.63,47151,10.38,72898.0,-7.27,-8.03,-8.03,0,*54
1491595208.87,47152,10.44,72900.5,-7.25,-7.95,-7.95,0,*55
1491595210.12,47153,10.38,72906.5,-7.25,-7.95,-7.91,0,*50
1491595211.36,47154,10.38,72902.5,-7.25,-7.91,-7.95,0,*57
1491595212.58,47155,10.38,72908.5,-7.23,-7.91,-7.87,0,*53
1491595213.85,47156,10.44,72914.8,-7.27,-7.95,-7.91,0,*57
1491595215.1,47157,10.38,72910.8,-7.25,-7.95,-7.91,0,*54
1491595216.34,47158,10.44,72920.5,-7.25,-7.91,-7.91,0,*5F
1491595217.59,47159,10.38,72916.5,-7.25,-7.95,-7.91,0,*5A
1491595218.83,47160,10.38,72918.3,-7.25,-7.95,-7.95,0,*54
1491595220.09,47161,10.38,72908.8,-7.25,-8.07,-8.07,0,*55
1491595221.35,47162,10.38,72898.5,-7.25,-8.07,-8.07,0,*56
1491595222.6,47163,10.44,72888.3,-7.25,-8.03,-8.07,0,*53
1491595223.85,47164,10.38,72896.5,-7.25,-8.07,-8.03,0,*54
1491595225.11,47165,10.38,72896.0,-7.27,-7.95,-7.95,0,*53
1491595226.36,47166,10.38,72902.3,-7.25,-7.91,-7.95,0,*56
1491595227.62,47167,10.38,72908.3,-7.27,-8.03,-7.95,0,*51
1491595228.86,47168,10.38,72900.3,-7.25,-7.95,-8.03,0,*5C
1491595230.11,47169,10.38,72890.8,-7.25,-7.95,-8.03,0,*5D
1491595231.35,47170,10.38,72896.8,-7.25,-7.95,-8.03,0,*55
1491595232.59,47171,10.38,72906.8,-7.25,-7.91,-7.91,0,*54
1491595233.84,47172,10.38,72910.8,-7.25,-7.95,-7.91,0,*53
1491595235.09,47173,10.44,72904.5,-7.25,-7.91,-7.91,0,*56
1491595236.33,47174,10.38,72898.5,-7.25,-7.95,-7.95,0,*51
1491595237.57,47175,10.38,72896.5,-7.25,-7.91,-7.95,0,*54
1491595238.82,47176,10.38,72892.3,-7.25,-7.95,-7.91,0,*57
1491595240.07,47177,10.38,72890.3,-7.25,-7.95,-7.91,0,*56
1491595241.31,47178,10.38,72880.0,-7.25,-8.03,-8.03,0,*5D
1491595242.55,47179,10.38,72892.5,-7.25,-8.07,-8.03,0,*58
1491595243.84,47180,10.44,72878.0,-7.27,-8.07,-8.07,0,*58
1491595245.09,47181,10.38,72868.3,-7.25,-8.07,-8.07,0,*5B
1491595246.35,47182,10.38,72876.3,-7.25,-8.07,-8.07,0,*58
1491595247.61,47183,10.38,72876.8,-7.25,-8.07,-8.07,0,*59
1491595248.86,47184,10.38,72886.3,-7.25,-8.07,-7.95,0,*5A
1491595250.1,47185,10.38,72884.5,-7.25,-7.91,-7.95,0,*5B
1491595251.34,47186,10.44,72886.5,-7.25,-7.95,-7.91,0,*58
1491595252.59,47187,10.44,72886.8,-7.25,-7.91,-7.91,0,*5D
1491595253.86,47188,10.38,72888.8,-7.27,-7.95,-7.91,0,*54
1491595255.11,47189,10.38,72896.0,-7.25,-7.91,-7.91,0,*53
1491595256.35,47190,10.38,72896.5,-7.25,-7.95,-7.91,0,*5F
1491595257.6,47191,10.38,72898.5,-7.25,-7.91,-7.91,0,*5A
1491595258.82,47192,10.38,72900.3,-7.25,-7.83,-7.91,0,*5A
1491595260.09,47193,10.38,72898.0,-7.27,-7.91,-7.91,0,*5A
1491595261.33,47194,10.38,72882.8,-7.25,-7.91,-7.95,0,*5B
1491595262.6,47195,10.38,72876.8,-7.27,-7.91,-7.91,0,*5C
1491595263.84,47196,10.38,72892.3,-7.25,-7.91,-7.95,0,*59
1491595265.08,47197,10.38,72876.5,-7.25,-7.95,-8.03,0,*5C
1491595266.36,47198,10.38,72874.0,-7.27,-7.95,-8.07,0,*55
1491595267.6,47199,10.38,72858.0,-7.23,-7.99,-8.03,0,*58
1491595268.86,47200,10.38,72876.5,-7.25,-8.11,-8.07,0,*56
1491595270.11,47201,10.44,72878.3,-7.25,-8.11,-8.11,0,*50
1491595271.37,47202,10.38,72878.8,-7.25,-8.07,-8.07,0,*53
1491595272.62,47203,10.38,72874.8,-7.25,-8.07,-8.03,0,*56
1491595273.86,47204,10.38,72910.8,-7.25,-8.03,-8.03,0,*55
1491595275.1,47205,10.38,72896.5,-7.25,-7.91,-7.91,0,*54
1491595276.35,47206,10.38,72898.8,-7.25,-7.95,-7.91,0,*53
1491595277.6,47207,10.38,72898.3,-7.25,-7.95,-7.91,0,*52
1491595278.84,47208,10.38,72904.0,-7.25,-7.95,-7.95,0,*59
1491595280.11,47209,10.38,72900.8,-7.27,-7.91,-7.95,0,*5E
1491595281.35,47210,10.38,72908.3,-7.25,-7.95,-7.95,0,*50
1491595282.61,47211,10.38,72904.0,-7.27,-8.03,-7.95,0,*53
1491595283.86,47212,10.38,72886.5,-7.25,-8.03,-8.03,0,*52
1491595285.1,47213,10.38,72876.3,-7.25,-8.03,-8.03,0,*53
1491595286.34,47214,10.38,72870.0,-7.25,-8.03,-7.95,0,*54
1491595287.58,47215,10.38,72866.0,-7.25,-7.95,-7.91,0,*51
1491595288.83,47216,10.38,72866.8,-7.25,-7.95,-7.95,0,*56
1491595290.07,47217,10.38,72872.8,-7.25,-8.03,-8.03,0,*57
1491595291.31,47218,10.38,72880.5,-7.25,-7.95,-8.03,0,*58
1491595292.55,47219,10.44,72892.5,-7.25,-7.95,-7.95,0,*59
1491595293.78,47220,10.38,72890.5,-7.25,-7.91,-7.83,0,*50
1491595295.02,47221,10.38,72894.8,-7.25,-7.95,-7.95,0,*52
1491595296.26,47222,10.38,72892.3,-7.25,-8.03,-7.95,0,*51
1491595297.53,47223,10.38,72892.5,-7.27,-7.91,-7.95,0,*56
1491595298.77,47224,10.38,72890.0,-7.25,-7.91,-7.91,0,*57
1491595300.01,47225,10.38,72888.3,-7.25,-7.91,-7.95,0,*52
1491595301.25,47226,10.38,72890.5,-7.25,-8.03,-7.95,0,*55
1491595302.5,47227,10.38,72888.5,-7.25,-7.91,-7.91,0,*54
1491595303.74,47228,10.38,72888.5,-7.25,-7.91,-7.95,0,*5F
1491595304.99,47229,10.38,72890.5,-7.25,-7.91,-7.91,0,*5A
1491595306.23,47230,10.38,72888.5,-7.25,-7.91,-7.91,0,*52
1491595307.45,47231,10.38,72880.0,-7.25,-7.91,-7.83,0,*50
1491595308.7,47232,10.38,72880.5,-7.25,-7.91,-7.91,0,*50
1491595309.95,47233,10.38,72872.0,-7.25,-7.95,-7.91,0,*55
1491595311.19,47234,10.38,72890.0,-7.25,-7.95,-7.91,0,*52
1491595312.43,47235,10.38,72888.8,-7.25,-7.91,-7.95,0,*53
1491595313.68,47236,10.38,72892.8,-7.25,-7.95,-7.91,0,*50
1491595314.92,47237,10.44,72894.8,-7.25,-7.95,-7.95,0,*55
1491595316.17,47238,10.38,72898.8,-7.25,-7.91,-7.91,0,*5A
1491595317.39,47239,10.38,72898.5,-7.25,-7.83,-7.91,0,*58
1491595318.62,47240,10.38,72898.8,-7.27,-7.83,-7.83,0,*57
1491595319.82,47241,10.38,72898.5,-7.25,-7.83,-7.83,0,*54
1491595321.07,47242,10.38,72888.5,-7.25,-7.95,-7.95,0,*57
1491595322.31,47243,10.38,72884.8,-7.25,-7.95,-7.95,0,*56
1491595323.55,47244,10.38,72884.8,-7.25,-7.91,-7.91,0,*51
1491595324.8,47245,10.38,72888.5,-7.25,-7.95,-7.91,0,*54
1491595326.02,47246,10.44,72900.0,-7.25,-7.83,-7.91,0,*50
1491595327.24,47247,10.38,72892.5,-7.25,-7.83,-8.03,0,*55
1491595328.49,47248,10.38,72894.8,-7.25,-7.95,-7.95,0,*5D
1491595329.73,47249,10.38,72888.3,-7.25,-7.95,-7.95,0,*5C
1491595330.98,47250,10.38,72898.5,-7.25,-7.95,-7.91,0,*50
1491595332.22,47251,10.38,72900.5,-7.23,-7.91,-7.91,0,*53
1491595333.47,47252,10.38,72890.0,-7.23,-7.91,-7.91,0,*50
1491595334.71,47253,10.38,72880.3,-7.23,-7.99,-8.03,0,*5D
1491595335.95,47254,10.38,72880.8,-7.23,-8.03,-8.03,0,*56
1491595337.19,47255,10.38,72888.3,-7.25,-8.03,-8.03,0,*51
1491595338.43,47256,10.38,72886.3,-7.25,-8.07,-8.03,0,*56
1491595339.67,47257,10.38,72888.0,-7.23,-8.03,-8.03,0,*55
1491595340.91,47258,10.38,72892.3,-7.23,-8.03,-8.03,0,*5A
1491595342.15,47259,10.38,72892.8,-7.23,-8.03,-8.03,0,*5B
1491595343.39,47260,10.38,72898.8,-7.23,-8.03,-7.99,0,*5D
1491595344.64,47261,10.38,72896.8,-7.25,-8.07,-8.03,0,*52
1491595345.89,47262,10.38,72888.5,-7.25,-8.03,-8.07,0,*51
1491595347.15,47263,10.38,72868.0,-7.25,-8.07,-8.07,0,*54
1491595348.39,47264,10.38,72848.3,-7.25,-8.03,-8.03,0,*53
1491595349.63,47265,10.38,72872.0,-7.25,-8.03,-8.03,0,*52
1491595350.89,47266,10.38,72872.8,-7.27,-7.91,-8.03,0,*57
1491595352.16,47267,10.38,72878.3,-7.27,-7.95,-7.95,0,*52
1491595353.41,47268,10.38,72856.0,-7.25,-7.91,-7.91,0,*5F
1491595354.67,47269,10.38,72896.3,-7.27,-7.91,-8.03,0,*58
1491595355.91,47270,10.38,72906.8,-7.25,-7.91,-7.95,0,*52
1491595357.16,47271,10.38,72918.5,-7.25,-7.95,-7.91,0,*53
1491595358.43,47272,10.38,72904.0,-7.27,-7.95,-7.91,0,*52
1491595359.68,47273,10.38,72900.5,-7.25,-7.95,-7.91,0,*51
1491595360.93,47274,10.38,72908.8,-7.25,-7.95,-7.91,0,*56
1491595362.17,47275,10.38,72918.5,-7.25,-7.91,-7.95,0,*57
1491595363.41,47276,10.38,72914.5,-7.25,-7.95,-7.95,0,*50
1491595364.65,47277,10.38,72916.5,-7.25,-7.91,-7.91,0,*51
1491595365.9,47278,10.38,72916.3,-7.25,-7.77,-7.91,0,*56
1491595367.17,47279,10.38,72916.3,-7.27,-7.91,-7.91,0,*5D
1491595368.4,47280,10.38,72912.8,-7.25,-7.95,-7.83,0,*5E
1491595369.64,47281,10.38,72910.8,-7.25,-8.03,-8.03,0,*58
1491595370.88,47282,10.38,72902.5,-7.25,-7.91,-7.95,0,*5F
1491595372.15,47283,10.38,72900.3,-7.27,-7.91,-7.91,0,*58
1491595373.39,47284,10.38,72900.5,-7.25,-7.95,-7.91,0,*59
1491595374.64,47285,10.38,72898.0,-7.25,-7.91,-7.91,0,*5C
1491595375.88,47286,10.38,72902.0,-7.25,-7.95,-7.95,0,*5F
1491595377.13,47287,10.38,72908.8,-7.25,-7.91,-7.91,0,*5E
1491595378.37,47288,10.38,72914.3,-7.25,-7.91,-7.91,0,*51
1491595379.62,47289,10.38,72914.3,-7.25,-7.95,-7.95,0,*50
1491595380.84,47290,10.38,72906.0,-7.23,-7.91,-7.87,0,*59
1491595382.06,47291,10.38,72900.8,-7.23,-7.91,-7.87,0,*58
1491595383.3,47292,10.38,72906.8,-7.25,-7.95,-7.95,0,*5A
1491595384.55,47293,10.38,72918.3,-7.25,-7.91,-8.07,0,*5B
1491595385.8,47294,10.38,72914.0,-7.25,-7.95,-7.95,0,*5C
1491595387.05,47295,10.38,72914.3,-7.25,-8.07,-8.03,0,*59
1491595388.25,47296,10.38,72912.3,-7.23,-7.87,-7.87,0,*58
1491595389.49,47297,10.38,72904.3,-7.25,-8.07,-7.95,0,*5B
1491595390.74,47298,10.38,72896.8,-7.23,-7.99,-8.03,0,*5A
1491595391.98,47299,10.38,72898.3,-7.23,-8.07,-8.03,0,*53
1491595393.22,47300,10.38,72894.0,-7.23,-8.03,-8.03,0,*56
1491595394.46,47301,10.38,72890.5,-7.23,-8.03,-8.03,0,*57
1491595395.73,47302,10.38,72890.3,-7.27,-8.03,-8.07,0,*54
1491595396.99,47303,10.38,72886.0,-7.25,-8.07,-8.07,0,*53
1491595398.24,47304,10.38,72884.0,-7.25,-8.03,-8.07,0,*50
1491595399.49,47305,10.38,72880.8,-7.25,-8.03,-8.07,0,*51
1491595400.77,47306,10.38,72858.0,-7.27,-8.07,-8.11,0,*53
1491595402.04,47307,10.38,72858.3,-7.27,-8.07,-8.11,0,*52
1491595403.3,47308,10.38,72852.3,-7.25,-8.07,-8.11,0,*5F
1491595404.55,47309,10.38,72850.3,-7.25,-8.07,-8.07,0,*59
1491595405.8,47310,10.38,72848.8,-7.25,-8.03,-8.07,0,*55
1491595407.04,47311,10.38,72842.5,-7.25,-8.03,-8.03,0,*50
1491595408.29,47312,10.38,72836.5,-7.25,-8.07,-8.03,0,*57
1491595409.55,47313,10.38,72850.0,-7.25,-8.07,-8.07,0,*52
1491595410.81,47314,10.38,72844.8,-7.27,-8.03,-7.95,0,*57
1491595412.06,47315,10.38,72850.3,-7.25,-7.95,-7.95,0,*54
1491595413.3,47316,10.38,72850.0,-7.25,-7.91,-7.95,0,*53
1491595414.54,47317,10.38,72862.5,-7.25,-7.95,-7.95,0,*56
1491595415.8,47318,10.38,72870.3,-7.25,-8.07,-8.07,0,*59
1491595417.05,47319,10.38,72876.0,-7.25,-8.03,-8.07,0,*5C
1491595418.29,47320,10.38,72886.0,-7.25,-7.95,-8.03,0,*52
1491595419.54,47321,10.38,72886.0,-7.25,-7.95,-8.03,0,*53
1491595420.78,47322,10.38,72888.5,-7.25,-7.91,-7.95,0,*54
1491595422.05,47323,10.38,72894.8,-7.27,-7.95,-7.91,0,*57
1491595423.32,47324,10.38,72894.5,-7.27,-7.91,-7.95,0,*50
1491595424.56,47325,10.38,72898.3,-7.25,-7.91,-7.91,0,*57
1491595425.81,47326,10.38,72898.8,-7.25,-7.95,-7.91,0,*50
1491595427.05,47327,10.38,72896.3,-7.25,-7.95,-7.95,0,*55
1491595428.27,47328,10.38,72896.0,-7.23,-7.91,-7.87,0,*5B
1491595429.52,47329,10.38,72900.0,-7.25,-7.91,-7.91,0,*5B
1491595430.72,47330,10.38,72910.5,-7.25,-7.83,-7.83,0,*53
1491595431.96,47331,10.38,72908.0,-7.25,-7.91,-7.91,0,*52
1491595433.19,47332,10.38,72906.3,-7.25,-7.83,-7.91,0,*52
1491595434.43,47333,10.38,72902.0,-7.25,-7.95,-7.91,0,*54
1491595435.68,47334,10.38,72904.0,-7.25,-7.91,-7.91,0,*57
1491595436.9,47335,10.38,72902.3,-7.23,-7.91,-7.87,0,*57
1491595438.12,47336,10.38,72898.0,-7.23,-7.87,-7.91,0,*54
1491595439.36,47337,10.38,72892.8,-7.23,-7.91,-7.91,0,*52
1491595440.61,47338,10.38,72884.5,-7.23,-7.99,-7.91,0,*55
1491595441.83,47339,10.38,72880.5,-7.23,-7.91,-7.87,0,*5B
1491595443.08,47340,10.38,72882.3,-7.25,-7.95,-7.91,0,*50
1491595444.32,47341,10.38,72884.8,-7.25,-7.91,-7.91,0,*55
1491595445.57,47342,10.38,72890.8,-7.25,-7.91,-7.91,0,*56
1491595446.77,47343,10.38,72894.0,-7.23,-7.87,-7.87,0,*51
1491595448.01,47344,10.38,72892.8,-7.23,-7.91,-7.91,0,*56
1491595449.25,47345,10.38,72896.5,-7.23,-7.91,-7.91,0,*57
1491595450.48,47346,10.38,72902.5,-7.23,-7.91,-7.87,0,*53
1491595451.72,47347,10.38,72900.3,-7.23,-7.91,-7.91,0,*55
1491595452.96,47348,10.38,72892.3,-7.23,-7.91,-7.91,0,*5A
1491595454.21,47349,10.38,72884.5,-7.25,-7.95,-7.91,0,*59
1491595455.45,47350,10.38,72890.3,-7.23,-7.91,-7.91,0,*53
1491595456.68,47351,10.38,72890.5,-7.23,-7.87,-7.91,0,*55
1491595457.87,47352,10.38,72888.3,-7.23,-7.87,-7.87,0,*51
1491595459.07,47353,10.38,72890.8,-7.23,-7.87,-7.87,0,*50
1491595460.3,47354,10.38,72890.3,-7.23,-7.87,-7.77,0,*58
1491595461.52,47355,10.38,72886.0,-7.23,-7.87,-7.77,0,*59
1491595462.77,47356,10.38,72884.3,-7.23,-7.77,-7.77,0,*55
1491595463.97,47357,10.38,72888.8,-7.23,-7.87,-7.87,0,*54
1491595465.17,47358,10.38,72886.8,-7.23,-7.87,-7.87,0,*5B
1491595466.39,47359,10.38,72886.5,-7.23,-7.87,-7.77,0,*55
1491595467.61,47360,10.38,72888.5,-7.23,-7.87,-7.77,0,*5F
1491595468.86,47361,10.38,72890.8,-7.23,-7.77,-7.77,0,*51
1491595470.11,47362,10.38,72888.5,-7.21,-7.77,-7.87,0,*5F
1491595471.31,47363,10.38,72884.8,-7.23,-7.87,-7.87,0,*53
1491595472.53,47364,10.38,72886.0,-7.23,-7.91,-7.87,0,*53
1491595473.75,47365,10.38,72892.0,-7.23,-7.87,-7.91,0,*52
1491595475.0,47366,10.38,72900.0,-7.21,-7.87,-7.91,0,*53
1491595476.24,47367,10.38,72894.5,-7.21,-7.87,-7.91,0,*52
1491595477.46,47368,10.38,72882.3,-7.23,-7.91,-7.87,0,*5F
1491595478.71,47369,10.38,72876.5,-7.23,-7.77,-7.91,0,*51
1491595479.93,47370,10.38,72874.5,-7.21,-7.87,-7.87,0,*53
1491595481.13,47371,10.38,72874.8,-7.23,-7.87,-7.87,0,*50
1491595482.36,47372,10.38,72868.5,-7.23,-7.77,-7.87,0,*5C
1491595483.56,47373,10.38,72876.0,-7.23,-7.87,-7.87,0,*52
1491595484.78,47374,10.38,72860.3,-7.23,-7.87,-7.77,0,*5A
1491595485.98,47375,10.38,72864.8,-7.23,-7.87,-7.87,0,*54
1491595487.2,47376,10.38,72862.5,-7.23,-7.91,-7.87,0,*50
1491595488.4,47377,10.38,72872.8,-7.23,-7.87,-7.87,0,*56
1491595489.64,47378,10.38,72876.0,-7.23,-7.91,-7.91,0,*59
1491595490.87,47379,10.38,72878.0,-7.23,-7.91,-7.87,0,*5F
1491595492.09,47380,10.38,72880.8,-7.23,-7.91,-7.87,0,*59
1491595493.31,47381,10.38,72898.8,-7.23,-7.87,-7.91,0,*58
1491595494.53,47382,10.38,72914.8,-7.21,-7.87,-7.87,0,*5E
1491595495.77,47383,10.44,72914.5,-7.23,-8.03,-8.03,0,*5D
1491595497.01,47384,10.38,72904.5,-7.23,-8.03,-7.99,0,*56
1491595498.26,47385,10.38,72898.8,-7.23,-7.99,-7.99,0,*5B
1491595499.5,47386,10.38,72892.0,-7.23,-8.03,-8.03,0,*58
1491595500.74,47387,10.38,72884.3,-7.23,-7.99,-8.03,0,*55
1491595501.98,47388,10.38,72872.3,-7.23,-8.03,-8.03,0,*56
1491595503.22,47389,10.38,72848.5,-7.23,-7.99,-8.03,0,*5B
1491595504.46,47390,10.38,72844.8,-7.23,-7.99,-8.03,0,*53
1491595505.7,47391,10.38,72832.3,-7.23,-8.03,-8.03,0,*5E
1491595506.95,47392,10.38,72836.3,-7.25,-8.03,-8.07,0,*5F
1491595508.19,47393,10.38,72840.0,-7.23,-8.03,-8.03,0,*5C
1491595509.43,47394,10.38,72836.8,-7.23,-8.03,-7.99,0,*57
1491595510.68,47395,10.38,72840.3,-7.23,-7.99,-8.03,0,*56
1491595511.92,47396,10.38,72848.3,-7.23,-7.91,-7.91,0,*59
1491595513.17,47397,10.38,72876.8,-7.23,-7.99,-7.99,0,*58
1491595514.41,47398,10.38,72876.3,-7.23,-7.99,-7.91,0,*5F
1491595515.65,47399,10.38,72886.8,-7.25,-8.03,-8.03,0,*50
1491595516.92,47400,10.38,72886.5,-7.27,-7.91,-7.91,0,*55
1491595518.16,47401,10.38,72894.0,-7.25,-7.95,-7.95,0,*56
1491595519.39,47402,10.38,72894.5,-7.23,-7.91,-7.87,0,*54
1491595520.61,47403,10.38,72896.3,-7.23,-7.91,-7.87,0,*55
1491595521.83,47404,10.38,72892.3,-7.21,-7.87,-7.87,0,*57
1491595523.07,47405,10.38,72898.3,-7.23,-7.91,-7.91,0,*54
1491595524.3,47406,10.38,72894.0,-7.23,-7.91,-7.87,0,*50
1491595525.54,47407,10.38,72898.0,-7.25,-7.95,-7.91,0,*54
1491595526.79,47408,10.38,72900.8,-7.25,-7.95,-7.91,0,*5B
1491595528.01,47409,10.38,72898.3,-7.23,-7.91,-7.87,0,*5F
1491595529.23,47410,10.38,72890.3,-7.23,-7.87,-7.91,0,*57
1491595530.46,47411,10.38,72900.3,-7.23,-7.87,-7.77,0,*5E
1491595531.66,47412,10.38,72902.3,-7.23,-7.87,-7.87,0,*52
1491595532.9,47413,10.38,72900.8,-7.21,-7.87,-7.91,0,*56
1491595534.14,47414,10.38,72904.3,-7.23,-7.91,-7.91,0,*54
1491595535.39,47415,10.38,72904.8,-7.25,-7.91,-7.95,0,*57
1491595536.61,47416,10.38,72906.0,-7.21,-7.87,-7.87,0,*54
1491595537.83,47417,10.38,72910.5,-7.23,-7.87,-7.91,0,*50
1491595539.05,47418,10.38,72908.3,-7.25,-7.91,-7.83,0,*5D
1491595540.28,47419,10.38,72904.8,-7.23,-7.87,-7.91,0,*5E
1491595541.47,47420,10.38,72900.0,-7.23,-7.87,-7.87,0,*53
1491595542.67,47421,10.38,72892.3,-7.23,-7.87,-7.87,0,*52
1491595543.87,47422,10.38,72888.5,-7.23,-7.87,-7.87,0,*51
1491595545.1,47423,10.38,72896.0,-7.23,-7.87,-7.91,0,*57
1491595546.32,47424,10.38,72902.3,-7.23,-7.87,-7.91,0,*50
1491595547.54,47425,10.38,72900.5,-7.21,-7.87,-7.87,0,*54
1491595548.74,47426,10.38,72896.0,-7.23,-7.87,-7.87,0,*55
1491595549.94,47427,10.38,72904.3,-7.23,-7.87,-7.87,0,*54
1491595551.16,47428,10.38,72912.0,-7.23,-7.77,-7.87,0,*54
1491595552.36,47429,10.38,72910.3,-7.23,-7.87,-7.87,0,*5A
1491595553.59,47430,10.38,72900.0,-7.23,-7.91,-7.87,0,*55
1491595554.81,47431,10.38,72894.5,-7.23,-7.87,-7.99,0,*5C
1491595556.05,47432,10.38,72888.3,-7.23,-7.91,-7.91,0,*50
1491595557.3,47433,10.38,72880.8,-7.23,-7.99,-7.99,0,*51
1491595558.56,47434,10.38,72882.5,-7.21,-7.91,-7.91,0,*54
1491595559.81,47435,10.38,72890.0,-7.25,-7.91,-7.91,0,*51
1491595561.01,47436,10.38,72900.5,-7.23,-7.87,-7.87,0,*54
1491595562.23,47437,10.38,72904.0,-7.23,-7.87,-7.91,0,*52
1491595563.48,47438,10.38,72896.5,-7.25,-8.07,-8.07,0,*5C
1491595564.75,47439,10.38,72900.3,-7.21,-8.03,-8.03,0,*59
1491595565.99,47440,10.38,72902.8,-7.23,-8.03,-8.03,0,*55
1491595567.22,47441,10.38,72902.0,-7.23,-8.03,-8.03,0,*54
1491595568.46,47442,10.38,72896.5,-7.23,-8.03,-8.03,0,*57
1491595569.71,47443,10.38,72898.8,-7.23,-7.99,-8.03,0,*5A
1491595570.95,47444,10.38,72904.8,-7.25,-8.07,-8.03,0,*53
1491595572.19,47445,10.38,72902.8,-7.25,-8.03,-7.95,0,*56
1491595573.44,47446,10.38,72902.5,-7.25,-7.95,-7.91,0,*51
1491595574.69,47447,10.38,72900.8,-7.23,-7.99,-7.91,0,*5A
1491595575.91,47448,10.38,72902.0,-7.23,-7.87,-7.91,0,*5A
1491595577.15,47449,10.38,72894.3,-7.21,-7.91,-7.87,0,*59
1491595578.4,47450,10.38,72894.3,-7.23,-7.91,-7.91,0,*54
1491595579.64,47451,10.38,72892.8,-7.23,-7.91,-7.91,0,*55
1491595580.89,47452,10.38,72894.3,-7.23,-7.99,-7.91,0,*5E
1491595582.13,47453,10.38,72896.3,-7.23,-7.91,-7.91,0,*57
1491595583.37,47454,10.38,72902.0,-7.23,-7.91,-7.91,0,*50
1491595584.6,47455,10.38,72906.5,-7.23,-7.91,-7.87,0,*56
1491595585.82,47456,10.38,72908.0,-7.23,-7.87,-7.91,0,*55
1491595587.06,47457,10.38,72904.8,-7.23,-7.91,-7.91,0,*53
1491595588.3,47458,10.38,72908.8,-7.23,-7.91,-7.91,0,*5C
1491595589.55,47459,10.38,72910.8,-7.23,-7.91,-7.91,0,*5D
1491595590.79,47460,10.38,72908.0,-7.21,-7.87,-7.91,0,*52
1491595592.06,47461,10.38,72906.8,-7.21,-7.91,-7.91,0,*54
1491595593.3,47462,10.38,72910.0,-7.23,-7.91,-7.91,0,*55
1491595594.55,47463,10.38,72904.0,-7.23,-7.99,-7.99,0,*54
1491595595.79,47464,10.38,72904.5,-7.23,-7.99,-7.99,0,*53
1491595597.04,47465,10.38,72904.3,-7.23,-7.99,-7.99,0,*52
1491595598.28,47466,10.38,72904.3,-7.23,-8.03,-8.03,0,*51
1491595599.52,47467,10.38,72906.5,-7.23,-8.03,-8.03,0,*50
1491595600.75,47468,10.38,72906.5,-7.23,-8.03,-8.03,0,*5F
1491595602.0,47469,10.38,72906.3,-7.23,-7.99,-8.03,0,*52
1491595603.26,47470,10.44,72906.0,-7.21,-8.03,-7.99,0,*58
1491595604.5,47471,10.38,72904.8,-7.23,-8.03,-8.03,0,*57
1491595605.74,47472,10.38,72906.0,-7.23,-8.03,-8.03,0,*54
1491595606.99,47473,10.38,72902.8,-7.23,-7.99,-7.99,0,*55
1491595608.23,47474,10.38,72898.8,-7.23,-8.03,-7.91,0,*56
1491595609.43,47475,10.38,72878.8,-7.23,-7.87,-7.87,0,*53
1491595610.67,47476,10.38,72864.3,-7.23,-7.91,-7.91,0,*50
1491595611.94,47477,10.38,72860.0,-7.21,-7.91,-7.99,0,*5B
1491595613.18,47478,10.38,72888.5,-7.23,-7.99,-8.03,0,*52
1491595614.42,47479,10.38,72904.5,-7.23,-8.03,-8.03,0,*5F
1491595615.66,47480,10.38,72906.3,-7.23,-7.99,-7.99,0,*59
1491595616.9,47481,10.38,72900.0,-7.25,-8.03,-8.03,0,*5E
1491595618.15,47482,10.38,72894.8,-7.25,-7.95,-8.03,0,*5D
1491595619.39,47483,10.38,72896.0,-7.23,-7.91,-7.91,0,*5A
1491595620.64,47484,10.38,72896.5,-7.25,-7.95,-7.95,0,*5B
1491595621.83,47485,10.38,72898.0,-7.23,-7.87,-7.87,0,*5C
1491595623.06,47486,10.38,72896.3,-7.23,-7.91,-7.87,0,*58
1491595624.28,47487,10.38,72890.0,-7.23,-7.87,-7.91,0,*59
1491595625.52,47488,10.38,72888.0,-7.23,-7.91,-7.99,0,*59
1491595626.76,47489,10.38,72904.0,-7.25,-7.95,-7.95,0,*56
1491595628.03,47490,10.38,72908.8,-7.21,-7.91,-7.91,0,*5A
1491595629.28,47491,10.38,72910.3,-7.23,-7.91,-7.91,0,*59
1491595630.5,47492,10.38,72920.5,-7.23,-7.99,-7.87,0,*55
1491595631.75,47493,10.38,72912.0,-7.21,-7.77,-7.87,0,*56
1491595632.97,47494,10.38,72914.8,-7.23,-7.77,-7.87,0,*53
1491595634.2,47495,10.38,72914.5,-7.23,-7.77,-7.87,0,*52
1491595635.42,47496,10.38,72918.0,-7.23,-7.77,-7.87,0,*51
1491595636.67,47497,10.38,72908.5,-7.21,-7.87,-7.77,0,*52
1491595637.89,47498,10.38,72910.0,-7.23,-7.87,-7.77,0,*5F
1491595639.14,47499,10.38,72904.0,-7.23,-7.77,-7.77,0,*51
1491595640.36,47500,10.38,72906.0,-7.23,-7.87,-7.77,0,*5F
1491595641.58,47501,10.38,72910.0,-7.23,-7.87,-7.91,0,*56
1491595642.83,47502,10.38,72912.0,-7.23,-7.91,-7.91,0,*52
1491595644.05,47503,10.38,72910.8,-7.23,-7.87,-7.91,0,*54
1491595645.27,47504,10.38,72904.5,-7.23,-7.77,-7.87,0,*5B
1491595646.52,47505,10.38,72900.3,-7.23,-7.91,-7.91,0,*55
1491595647.76,47506,10.38,72904.5,-7.23,-7.99,-7.91,0,*5E
1491595649.03,47507,10.38,72910.3,-7.21,-7.99,-7.91,0,*5D
1491595650.27,47508,10.38,72914.0,-7.23,-7.77,-7.91,0,*50
1491595651.48,47509,10.38,72914.3,-7.23,-7.87,-7.87,0,*59
1491595652.74,47510,10.38,72912.5,-7.21,-7.91,-7.91,0,*53
1491595653.96,47511,10.38,72912.8,-7.23,-7.91,-7.87,0,*57
1491595655.19,47512,10.38,72912.8,-7.23,-7.77,-7.87,0,*5C
1491595656.41,47513,10.38,72918.8,-7.23,-7.91,-7.87,0,*55
1491595657.63,47514,10.38,72914.0,-7.23,-7.87,-7.77,0,*5A
1491595658.88,47515,10.38,72908.5,-7.23,-7.77,-7.77,0,*54
1491595660.13,47516,10.38,72902.3,-7.21,-7.77,-7.87,0,*5A
1491595661.37,47517,10.38,72898.3,-7.21,-7.91,-7.87,0,*53
1491595662.62,47518,10.38,72896.3,-7.23,-7.91,-7.91,0,*59
1491595663.88,47519,10.38,72894.3,-7.21,-7.91,-7.99,0,*52
1491595665.15,47520,10.38,72894.5,-7.21,-7.99,-8.03,0,*5C
1491595666.4,47521,10.38,72890.5,-7.23,-7.99,-7.99,0,*53
1491595667.66,47522,10.38,72898.8,-7.21,-7.99,-7.99,0,*52
1491595668.93,47523,10.38,72910.3,-7.21,-7.91,-7.99,0,*5B
1491595670.15,47524,10.38,72912.0,-7.21,-7.87,-7.87,0,*54
1491595671.4,47525,10.38,72904.3,-7.23,-7.91,-7.91,0,*57
1491595672.64,47526,10.38,72898.5,-7.23,-7.91,-7.91,0,*54
1491595673.91,47527,10.38,72896.8,-7.21,-7.99,-7.91,0,*5F
1491595675.15,47528,10.38,72906.5,-7.23,-7.91,-7.91,0,*5A
1491595676.4,47529,10.38,72906.3,-7.23,-7.91,-7.91,0,*5B
1491595677.66,47530,10.38,72892.3,-7.21,-7.91,-8.03,0,*55
1491595678.88,47531,10.38,72886.8,-7.23,-7.99,-7.87,0,*5D
1491595680.15,47532,10.38,72896.3,-7.21,-7.99,-7.99,0,*53
1491595681.39,47533,10.38,72886.3,-7.23,-7.99,-8.03,0,*5C
1491595682.66,47534,10.38,72868.8,-7.21,-7.99,-7.99,0,*55
1491595683.91,47535,10.38,72866.5,-7.23,-7.91,-7.91,0,*56
1491595685.18,47536,10.38,72880.0,-7.21,-7.99,-7.99,0,*57
1491595686.42,47537,10.38,72886.5,-7.23,-7.91,-7.91,0,*54
1491595687.64,47538,10.38,72900.0,-7.23,-7.91,-7.87,0,*5C
1491595688.89,47539,10.38,72898.5,-7.23,-7.91,-7.91,0,*5A
1491595690.11,47540,10.38,72900.3,-7.23,-7.91,-7.87,0,*53
1491595691.33,47541,10.38,72902.5,-7.23,-7.91,-7.87,0,*52
1491595692.53,47542,10.38,72914.5,-7.23,-7.87,-7.87,0,*56
1491595693.75,47543,10.38,72906.5,-7.21,-7.87,-7.87,0,*55
1491595695.0,47544,10.38,72904.0,-7.21,-7.91,-7.87,0,*55
1491595696.22,47545,10.38,72908.0,-7.23,-7.91,-7.87,0,*56
1491595697.42,47546,10.38,72898.8,-7.23,-7.87,-7.87,0,*52
1491595698.64,47547,10.38,72894.8,-7.23,-7.91,-7.87,0,*54
1491595699.91,47548,10.38,72896.3,-7.21,-7.91,-7.91,0,*5E
1491595701.15,47549,10.38,72882.8,-7.23,-7.91,-7.91,0,*5D
1491595702.4,47550,10.38,72890.3,-7.23,-7.91,-7.91,0,*55
1491595703.64,47551,10.38,72896.0,-7.23,-7.91,-7.91,0,*54
1491595704.88,47552,10.38,72894.0,-7.23,-7.91,-7.91,0,*57
1491595706.13,47553,10.38,72896.3,-7.23,-7.99,-8.03,0,*5A
1491595707.37,47554,10.38,72892.5,-7.23,-7.99,-7.91,0,*59
1491595708.62,47555,10.38,72888.3,-7.23,-7.99,-7.91,0,*58
1491595709.86,47556,10.38,72888.8,-7.23,-8.03,-8.03,0,*53
1491595711.1,47557,10.38,72898.0,-7.23,-7.99,-7.91,0,*5A
1491595712.35,47558,10.38,72894.0,-7.21,-7.91,-7.87,0,*58